Time,TemperatureF,DewpointF,PressureIn,WindDirection,WindDirectionDegrees,WindSpeedMPH,WindSpeedGustMPH,Humidity,HourlyPrecipIn,Conditions,Clouds,dailyrainin,SoftwareType,DateUTC
2013-05-30 00:14:00,68.0,64.6,29.94,NNE,22,0.0,-999.0,89,-99.99,,,0.00,Acu-Link.com,2013-05-30 04:14:00,
2013-05-30 00:29:00,67.5,63.8,29.94,ESE,112,0.0,-999.0,88,-99.99,,,0.00,Acu-Link.com,2013-05-30 04:29:00,
2013-05-30 00:44:00,66.7,63.7,29.94,NNW,337,0.0,-999.0,90,-99.99,,,0.00,Acu-Link.com,2013-05-30 04:44:00,
2013-05-30 00:59:00,66.6,63.9,29.94,NNW,337,0.0,-999.0,91,-99.99,,,0.00,Acu-Link.com,2013-05-30 04:59:00,
2013-05-30 01:14:00,66.2,63.8,29.94,NNW,337,0.0,-999.0,92,-99.99,,,0.00,Acu-Link.com,2013-05-30 05:14:00,
2013-05-30 01:29:00,65.8,63.4,29.95,ESE,112,0.0,-999.0,92,-99.99,,,0.00,Acu-Link.com,2013-05-30 05:29:00,
2013-05-30 01:44:00,65.5,63.4,29.94,SSE,157,0.0,-999.0,93,-99.99,,,0.00,Acu-Link.com,2013-05-30 05:44:00,
2013-05-30 01:59:00,65.3,63.2,29.95,North,0,0.0,-999.0,93,-99.99,,,0.00,Acu-Link.com,2013-05-30 05:59:00,
2013-05-30 02:15:00,64.9,62.8,29.96,North,0,0.0,-999.0,93,-99.99,,,0.00,Acu-Link.com,2013-05-30 06:15:00,
2013-05-30 02:30:00,64.6,63.1,29.95,NNW,337,0.0,-999.0,95,-99.99,,,0.00,Acu-Link.com,2013-05-30 06:30:00,
2013-05-30 02:45:00,64.2,62.1,29.96,NNW,337,0.0,-999.0,93,-99.99,,,0.00,Acu-Link.com,2013-05-30 06:45:00,
2013-05-30 03:00:00,64.0,62.5,29.96,NNW,337,0.0,-999.0,95,-99.99,,,0.00,Acu-Link.com,2013-05-30 07:00:00,
2013-05-30 03:15:00,63.9,62.7,29.96,NNW,337,0.0,-999.0,96,-99.99,,,0.00,Acu-Link.com,2013-05-30 07:15:00,
2013-05-30 03:30:00,63.7,62.5,29.96,NNW,337,0.0,-999.0,96,-99.99,,,0.00,Acu-Link.com,2013-05-30 07:30:00,
2013-05-30 03:45:00,63.5,62.3,29.96,NNW,337,0.0,-999.0,96,-99.99,,,0.00,Acu-Link.com,2013-05-30 07:45:00,
2013-05-30 04:00:00,63.5,62.6,29.96,ENE,67,0.0,-999.0,97,-99.99,,,0.00,Acu-Link.com,2013-05-30 08:00:00,
2013-05-30 04:16:00,63.3,62.4,29.96,NNW,337,0.0,-999.0,97,-99.99,,,0.00,Acu-Link.com,2013-05-30 08:16:00,
2013-05-30 04:31:00,63.3,62.7,29.97,NNW,337,0.0,-999.0,98,-99.99,,,0.00,Acu-Link.com,2013-05-30 08:31:00,
2013-05-30 04:46:00,63.5,62.9,29.98,East,90,0.0,-999.0,98,-99.99,,,0.00,Acu-Link.com,2013-05-30 08:46:00,
2013-05-30 05:01:00,63.3,62.7,29.99,North,0,0.0,-999.0,98,-99.99,,,0.00,Acu-Link.com,2013-05-30 09:01:00,
2013-05-30 05:17:00,63.5,62.9,29.99,NNW,337,0.0,-999.0,98,-99.99,,,0.00,Acu-Link.com,2013-05-30 09:17:00,
2013-05-30 05:32:00,63.3,62.7,29.99,NNW,337,0.0,-999.0,98,-99.99,,,0.00,Acu-Link.com,2013-05-30 09:32:00,
2013-05-30 05:47:00,63.1,62.5,30.00,North,0,0.0,-999.0,98,-99.99,,,0.00,Acu-Link.com,2013-05-30 09:47:00,
2013-05-30 06:02:00,63.0,62.1,30.00,SE,135,0.0,-999.0,97,-99.99,,,0.00,Acu-Link.com,2013-05-30 10:02:00,
2013-05-30 06:17:00,63.0,62.4,30.02,SE,135,0.0,-999.0,98,-99.99,,,0.00,Acu-Link.com,2013-05-30 10:17:00,
2013-05-30 06:32:00,63.1,62.8,30.02,SE,135,0.0,-999.0,99,-99.99,,,0.00,Acu-Link.com,2013-05-30 10:32:00,
2013-05-30 06:47:00,63.1,62.8,30.02,SE,135,0.0,-999.0,99,-99.99,,,0.00,Acu-Link.com,2013-05-30 10:47:00,
2013-05-30 07:03:00,63.3,62.7,30.03,SE,135,0.0,-999.0,98,-99.99,,,0.00,Acu-Link.com,2013-05-30 11:03:00,
2013-05-30 07:18:00,63.7,63.4,30.03,SE,135,0.0,-999.0,99,-99.99,,,0.00,Acu-Link.com,2013-05-30 11:18:00,
2013-05-30 07:33:00,64.0,63.7,30.03,SE,135,0.0,-999.0,99,-99.99,,,0.00,Acu-Link.com,2013-05-30 11:33:00,
2013-05-30 07:48:00,64.6,64.3,30.04,SE,135,0.0,-999.0,99,-99.99,,,0.00,Acu-Link.com,2013-05-30 11:48:00,
2013-05-30 08:03:00,65.3,65.0,30.04,SE,135,0.0,-999.0,99,-99.99,,,0.00,Acu-Link.com,2013-05-30 12:03:00,
2013-05-30 08:18:00,65.8,65.5,30.05,ESE,112,0.0,-999.0,99,-99.99,,,0.00,Acu-Link.com,2013-05-30 12:18:00,
2013-05-30 08:33:00,66.9,65.7,30.05,SSE,157,0.0,-999.0,96,-99.99,,,0.00,Acu-Link.com,2013-05-30 12:33:00,
2013-05-30 08:48:00,68.2,66.4,30.05,ESE,112,2.7,-999.0,94,-99.99,,,0.00,Acu-Link.com,2013-05-30 12:48:00,
2013-05-30 09:03:00,70.2,67.8,30.05,SSE,157,1.1,-999.0,92,-99.99,,,0.00,Acu-Link.com,2013-05-30 13:03:00,
2013-05-30 09:19:00,72.5,68.1,30.05,South,180,1.1,-999.0,86,-99.99,,,0.00,Acu-Link.com,2013-05-30 13:19:00,
2013-05-30 09:34:00,73.4,67.9,30.05,NNW,337,3.2,-999.0,83,-99.99,,,0.00,Acu-Link.com,2013-05-30 13:34:00,
2013-05-30 09:49:00,73.8,67.9,30.04,SSE,157,4.2,-999.0,82,-99.99,,,0.00,Acu-Link.com,2013-05-30 13:49:00,
2013-05-30 10:04:00,74.5,68.6,30.04,NW,315,2.7,-999.0,82,-99.99,,,0.00,Acu-Link.com,2013-05-30 14:04:00,
2013-05-30 10:19:00,75.2,68.6,30.04,West,270,1.1,-999.0,80,-99.99,,,0.00,Acu-Link.com,2013-05-30 14:19:00,
2013-05-30 10:34:00,76.5,69.5,30.04,ENE,67,4.2,-999.0,79,-99.99,,,0.00,Acu-Link.com,2013-05-30 14:34:00,
2013-05-30 10:49:00,76.8,68.3,30.04,SW,225,2.7,-999.0,75,-99.99,,,0.00,Acu-Link.com,2013-05-30 14:49:00,
2013-05-30 11:04:00,77.2,69.0,30.03,NNW,337,1.7,-999.0,76,-99.99,,,0.00,Acu-Link.com,2013-05-30 15:04:00,
2013-05-30 11:19:00,77.5,68.5,30.03,ESE,112,5.3,-999.0,74,-99.99,,,0.00,Acu-Link.com,2013-05-30 15:19:00,
2013-05-30 11:35:00,79.2,69.4,30.03,SSE,157,2.7,-999.0,72,-99.99,,,0.00,Acu-Link.com,2013-05-30 15:35:00,
2013-05-30 11:50:00,79.9,69.2,30.02,NE,45,2.7,-999.0,70,-99.99,,,0.00,Acu-Link.com,2013-05-30 15:50:00,
2013-05-30 12:05:00,79.7,68.6,30.02,East,90,1.7,-999.0,69,-99.99,,,0.00,Acu-Link.com,2013-05-30 16:05:00,
2013-05-30 12:20:00,81.1,69.9,30.02,SSW,202,2.2,-999.0,69,-99.99,,,0.00,Acu-Link.com,2013-05-30 16:20:00,
2013-05-30 12:35:00,81.7,70.5,30.01,NNW,337,1.7,-999.0,69,-99.99,,,0.00,Acu-Link.com,2013-05-30 16:35:00,
2013-05-30 12:50:00,81.9,69.4,30.00,South,180,2.2,-999.0,66,-99.99,,,0.00,Acu-Link.com,2013-05-30 16:50:00,
2013-05-30 13:05:00,83.5,70.9,30.00,West,270,4.7,-999.0,66,-99.99,,,0.00,Acu-Link.com,2013-05-30 17:05:00,
2013-05-30 13:20:00,82.8,68.9,30.00,SSE,157,2.7,-999.0,63,-99.99,,,0.00,Acu-Link.com,2013-05-30 17:20:00,
2013-05-30 13:35:00,82.4,68.5,29.99,West,270,2.7,-999.0,63,-99.99,,,0.00,Acu-Link.com,2013-05-30 17:35:00,
2013-05-30 13:51:00,84.0,70.0,29.98,East,90,4.2,-999.0,63,-99.99,,,0.00,Acu-Link.com,2013-05-30 17:51:00,
2013-05-30 14:06:00,82.6,70.1,29.98,NNE,22,2.2,-999.0,66,-99.99,,,0.00,Acu-Link.com,2013-05-30 18:06:00,
2013-05-30 14:21:00,82.8,68.4,29.98,South,180,4.2,-999.0,62,-99.99,,,0.00,Acu-Link.com,2013-05-30 18:21:00,
2013-05-30 14:36:00,84.7,71.1,29.98,SW,225,1.7,-999.0,64,-99.99,,,0.00,Acu-Link.com,2013-05-30 18:36:00,
2013-05-30 14:51:00,82.4,69.4,29.98,South,180,0.0,-999.0,65,-99.99,,,0.00,Acu-Link.com,2013-05-30 18:51:00,
2013-05-30 15:06:00,82.8,68.9,29.96,WNW,292,1.7,-999.0,63,-99.99,,,0.00,Acu-Link.com,2013-05-30 19:06:00,
2013-05-30 15:21:00,82.2,69.2,29.96,WNW,292,2.2,-999.0,65,-99.99,,,0.00,Acu-Link.com,2013-05-30 19:21:00,
2013-05-30 15:36:00,82.2,70.1,29.96,WNW,292,2.2,-999.0,67,-99.99,,,0.00,Acu-Link.com,2013-05-30 19:36:00,
2013-05-30 15:51:00,85.5,70.0,29.95,SSW,202,2.7,-999.0,60,-99.99,,,0.00,Acu-Link.com,2013-05-30 19:51:00,
2013-05-30 16:07:00,83.7,70.2,29.94,NNW,337,6.3,-999.0,64,-99.99,,,0.00,Acu-Link.com,2013-05-30 20:07:00,
2013-05-30 16:22:00,83.8,68.9,29.94,NW,315,4.7,-999.0,61,-99.99,,,0.00,Acu-Link.com,2013-05-30 20:22:00,
2013-05-30 16:37:00,84.2,69.3,29.92,WSW,247,1.1,-999.0,61,-99.99,,,0.00,Acu-Link.com,2013-05-30 20:37:00,
2013-05-30 16:52:00,84.0,68.6,29.92,NNW,337,2.2,-999.0,60,-99.99,,,0.00,Acu-Link.com,2013-05-30 20:52:00,
2013-05-30 17:07:00,85.5,68.5,29.92,NW,315,0.0,-999.0,57,-99.99,,,0.00,Acu-Link.com,2013-05-30 21:07:00,
2013-05-30 17:22:00,82.9,69.0,29.91,NNW,337,1.1,-999.0,63,-99.99,,,0.00,Acu-Link.com,2013-05-30 21:22:00,
2013-05-30 17:37:00,83.7,69.7,29.91,WSW,247,2.7,-999.0,63,-99.99,,,0.00,Acu-Link.com,2013-05-30 21:37:00,
2013-05-30 17:53:00,82.4,69.4,29.90,South,180,0.0,-999.0,65,-99.99,,,0.00,Acu-Link.com,2013-05-30 21:53:00,
2013-05-30 18:08:00,82.2,71.4,29.89,WSW,247,0.0,-999.0,70,-99.99,,,0.00,Acu-Link.com,2013-05-30 22:08:00,
2013-05-30 18:25:00,83.1,70.5,29.89,SW,225,0.0,-999.0,66,-99.99,,,0.00,Acu-Link.com,2013-05-30 22:25:00,
2013-05-30 18:40:00,82.4,69.9,29.89,West,270,3.7,-999.0,66,-99.99,,,0.00,Acu-Link.com,2013-05-30 22:40:00,
2013-05-30 18:55:00,82.8,69.4,29.90,SSW,202,0.0,-999.0,64,-99.99,,,0.00,Acu-Link.com,2013-05-30 22:55:00,
2013-05-30 19:11:00,81.9,69.8,29.90,NW,315,1.1,-999.0,67,-99.99,,,0.00,Acu-Link.com,2013-05-30 23:11:00,
2013-05-30 19:26:00,81.5,70.3,29.90,NNW,337,0.0,-999.0,69,-99.99,,,0.00,Acu-Link.com,2013-05-30 23:26:00,
2013-05-30 19:41:00,81.3,69.3,29.91,North,0,0.0,-999.0,67,-99.99,,,0.00,Acu-Link.com,2013-05-30 23:41:00,
2013-05-30 19:56:00,80.4,68.8,29.91,SSE,157,0.0,-999.0,68,-99.99,,,0.00,Acu-Link.com,2013-05-30 23:56:00,
2013-05-30 20:11:00,79.7,68.2,29.91,SSE,157,0.0,-999.0,68,-99.99,,,0.00,Acu-Link.com,2013-05-31 00:11:00,
2013-05-30 20:26:00,79.2,67.7,29.91,SSE,157,1.7,-999.0,68,-99.99,,,0.00,Acu-Link.com,2013-05-31 00:26:00,
2013-05-30 20:41:00,77.7,67.9,29.91,NNW,337,0.0,-999.0,72,-99.99,,,0.00,Acu-Link.com,2013-05-31 00:41:00,
2013-05-30 20:56:00,76.6,66.9,29.92,NE,45,0.0,-999.0,72,-99.99,,,0.00,Acu-Link.com,2013-05-31 00:56:00,
2013-05-30 21:11:00,75.4,66.5,29.93,ESE,112,0.0,-999.0,74,-99.99,,,0.00,Acu-Link.com,2013-05-31 01:11:00,
2013-05-30 21:27:00,74.3,66.2,29.92,ESE,112,0.0,-999.0,76,-99.99,,,0.00,Acu-Link.com,2013-05-31 01:27:00,
2013-05-30 21:42:00,73.4,65.7,29.93,East,90,0.0,-999.0,77,-99.99,,,0.00,Acu-Link.com,2013-05-31 01:42:00,
2013-05-30 21:57:00,72.7,65.8,29.92,ESE,112,0.0,-999.0,79,-99.99,,,0.00,Acu-Link.com,2013-05-31 01:57:00,
2013-05-30 22:12:00,72.0,65.8,29.92,ESE,112,0.0,-999.0,81,-99.99,,,0.00,Acu-Link.com,2013-05-31 02:12:00,
2013-05-30 22:27:00,71.4,66.0,29.93,ESE,112,0.0,-999.0,83,-99.99,,,0.00,Acu-Link.com,2013-05-31 02:27:00,
2013-05-30 22:42:00,70.9,66.2,29.93,SE,135,0.0,-999.0,85,-99.99,,,0.00,Acu-Link.com,2013-05-31 02:42:00,
2013-05-30 22:57:00,70.2,65.5,29.94,SE,135,0.0,-999.0,85,-99.99,,,0.00,Acu-Link.com,2013-05-31 02:57:00,
2013-05-30 23:12:00,69.6,65.9,29.94,SE,135,0.0,-999.0,88,-99.99,,,0.00,Acu-Link.com,2013-05-31 03:12:00,
2013-05-30 23:27:00,68.9,65.2,29.95,SE,135,0.0,-999.0,88,-99.99,,,0.00,Acu-Link.com,2013-05-31 03:27:00,
2013-05-30 23:43:00,68.4,65.3,29.94,SE,135,0.0,-999.0,90,-99.99,,,0.00,Acu-Link.com,2013-05-31 03:43:00,
2013-05-30 23:58:00,67.8,64.8,29.95,SE,135,0.0,-999.0,90,-99.99,,,0.00,Acu-Link.com,2013-05-31 03:58:00,